Weather History for Lamoni, IA

Change the Weather History Date:

Saturday, November 3, 2012

  Actual Average Record
Temperature  
Mean Temperature 46 °F 46 °F  
Max Temperature 55 °F 56 °F 75 °F (2008)
Min Temperature 36 °F 36 °F 7 °F (1991)
Degree Days  
Heating Degree Days 19 19  
Month to date heating degree days 52 56  
Since 1 July heating degree days 587 540  
Cooling Degree Days 0 0  
Month to date cooling degree days 0 0  
Year to date cooling degree days 1311 946  
Moisture  
Dew Point 30 °F    
Average Humidity 57    
Maximum Humidity 76    
Minimum Humidity 38    
Precipitation  
Precipitation 0.00 in 0.12 in 1.08 in (1981)
Month to date precipitation 0.00 0.36  
Sea Level Pressure  
Sea Level Pressure 30.15 in    
Wind  
Wind Speed 6 mph (NNE)    
Max Wind Speed 12 mph    
Max Gust Speed 16 mph    
Visibility 10 miles    
Events      
T = Trace of Precipitation, MM = Missing Value Source: NWS Daily Summary

Daily Weather History Graph

Daily Weather History Graph

Search for Another Location

Airport:

Trip Planner

Search our weather history database for the weather conditions in past years. The results will help you decide how hot, cold, wet, or windy it might be!

Date:

Astronomy

Nov. 03, 2012 Rise Set
Actual Time 7:48 AM CDT 6:09 PM CDT
Civil Twilight 7:20 AM CDT 6:37 PM CDT
Nautical Twilight 6:47 AM CDT 7:09 PM CDT
Astronomical Twilight 6:15 AM CDT 7:41 PM CDT
Moon 9:50 PM CDT (11/3) 11:53 AM CDT (11/3)
Length of Visible Light 11h 17m
Length of Day
10h 20m
Waning Gibbous, 80% of the Moon is Illuminated
Nov 3
Waning Gibbous
Nov 6
Last Quarter
Nov 13
New
Nov 20
First Quarter
Nov 28
Full

Hourly Weather History & Observations

Time (CDT) Temp. Windchill Dew Point Humidity Pressure Visibility Wind Dir Wind Speed Gust Speed Precip Events Conditions
12:53 AM 37.0 °F 32.4 °F 28.9 °F 73% 30.06 in 10.0 mi NE 5.8 mph - N/A   Clear
1:53 AM 39.0 °F 33.4 °F 30.0 °F 70% 30.06 in 10.0 mi NNE 8.1 mph - N/A   Clear
2:53 AM 37.9 °F 31.5 °F 30.0 °F 73% 30.05 in 10.0 mi NNE 9.2 mph - N/A   Clear
3:53 AM 39.0 °F 32.8 °F 30.0 °F 70% 30.05 in 10.0 mi NE 9.2 mph - N/A   Mostly Cloudy
4:53 AM 39.9 °F 33.4 °F 30.0 °F 68% 30.06 in 10.0 mi NNE 10.4 mph - N/A   Overcast
5:53 AM 41.0 °F 34.7 °F 30.0 °F 65% 30.09 in 10.0 mi NNE 10.4 mph - N/A   Overcast
6:53 AM 37.0 °F 31.0 °F 28.9 °F 73% 30.11 in 10.0 mi North 8.1 mph - N/A   Clear
7:53 AM 36.0 °F 29.6 °F 28.0 °F 73% 30.14 in 10.0 mi North 8.1 mph - N/A   Clear
8:53 AM 37.9 °F 30.9 °F 28.9 °F 70% 30.17 in 10.0 mi NNE 10.4 mph - N/A   Clear
9:53 AM 42.1 °F 36.6 °F 30.9 °F 65% 30.17 in 10.0 mi NE 9.2 mph - N/A   Clear
10:53 AM 46.9 °F - 32.0 °F 56% 30.18 in 10.0 mi NE 6.9 mph - N/A   Clear
11:53 AM 50.0 °F - 33.1 °F 52% 30.18 in 10.0 mi NNE 6.9 mph - N/A   Clear
12:53 PM 52.0 °F - 33.1 °F 49% 30.17 in 10.0 mi North 9.2 mph - N/A   Clear
1:53 PM 54.0 °F - 32.0 °F 43% 30.17 in 10.0 mi NNE 9.2 mph 16.1 mph N/A   Clear
2:53 PM 55.0 °F - 32.0 °F 42% 30.16 in 10.0 mi NNE 6.9 mph - N/A   Clear
3:53 PM 55.0 °F - 30.0 °F 38% 30.16 in 10.0 mi NNE 6.9 mph - N/A   Clear
4:53 PM 54.0 °F - 30.0 °F 40% 30.17 in 10.0 mi North 5.8 mph - N/A   Clear
5:53 PM 50.0 °F - 28.9 °F 44% 30.18 in 10.0 mi North 4.6 mph - N/A   Clear
6:53 PM 48.0 °F - 28.0 °F 46% 30.19 in 10.0 mi NNE 4.6 mph - N/A   Clear
7:53 PM 44.1 °F - 28.0 °F 53% 30.21 in 10.0 mi Calm Calm - N/A   Clear
8:53 PM 44.1 °F 42.5 °F 28.0 °F 53% 30.21 in 10.0 mi North 3.5 mph - N/A   Clear
9:53 PM 43.0 °F 41.3 °F 28.0 °F 56% 30.21 in 10.0 mi NE 3.5 mph - N/A   Clear
10:53 PM 39.9 °F - 28.0 °F 63% 30.22 in 10.0 mi Calm Calm - N/A   Clear
11:53 PM 39.0 °F - 28.0 °F 65% 30.22 in 10.0 mi Calm Calm - N/A   Clear